Theta_e
347 349 354 357 357 358 359 360 358 357 358 358 356 355 355 354 354 354 354 354 354 354 354 354 353 353 353 352 352 352 352 352 352 352 352 353 353 353 353 352 352 353 353 353 353 353 353 351 348 347 346 345 345 345 345 346 345 345 345 345 347 348 348 347 345 343 340 341 342 342 339 339 343 343 342 339 338 337 336 335 335 332 332 334 340
346 351 354 356 357 358 358 358 357 357 358 358 357 355 355 355 355 355 355 354 354 354 354 354 354 353 352 352 352 352 352 351 351 351 352 352 353 352 351 351 350 350 349 349 351 352 352 350 348 346 345 344 345 344 347 348 349 347 346 346 346 345 345 344 343 341 342 342 339 339 339 343 340 340 341 339 337 336 337 336 336 331 331 336 339
348 350 355 355 357 357 358 357 357 357 358 358 357 356 356 355 355 355 355 354 354 354 354 354 353 353 352 352 352 352 352 351 351 351 351 351 351 351 351 350 349 348 348 351 352 351 350 349 347 346 345 346 345 345 347 349 350 350 349 348 347 344 343 344 345 343 342 340 341 343 343 343 341 343 343 339 337 337 336 337 336 335 332 337 338
346 349 353 356 357 357 357 357 356 356 357 356 356 357 356 356 355 355 355 354 354 354 354 354 353 352 352 352 352 352 351 352 351 351 351 351 350 349 350 349 348 346 346 351 351 349 348 348 348 348 347 345 344 344 346 348 348 348 348 348 346 345 344 343 344 343 342 341 343 342 339 335 337 342 343 340 338 336 336 335 336 337 337 337 338
346 350 353 354 355 356 356 356 356 356 356 355 356 356 356 356 355 355 355 355 355 354 354 354 353 353 353 352 352 351 351 351 351 351 351 350 350 349 349 347 346 346 345 346 346 346 347 347 347 347 345 345 344 344 346 347 348 348 347 347 346 345 345 344 342 342 343 342 345 342 334 333 334 340 343 342 340 337 337 337 335 334 336 336 337
347 348 350 352 353 354 356 356 356 356 355 354 356 356 356 356 355 355 355 355 354 354 354 353 353 353 353 352 352 352 351 350 350 350 350 350 352 350 348 346 347 346 346 346 347 345 346 347 346 345 345 345 343 342 343 344 345 346 345 345 345 345 344 345 345 343 340 343 342 341 334 335 334 334 343 343 340 337 336 336 336 336 336 335 335
346 347 349 351 352 353 355 356 356 355 354 355 355 355 355 355 355 355 355 355 354 354 354 354 353 353 352 352 352 352 351 350 350 350 349 349 349 351 347 347 347 346 347 347 346 345 345 346 346 346 345 344 342 341 342 343 343 344 343 343 344 344 344 342 345 342 345 344 342 343 334 334 334 334 342 342 341 338 337 337 336 336 335 334 334
344 346 348 350 351 354 355 355 355 354 354 355 356 355 355 355 354 354 355 355 354 354 354 353 353 353 352 352 352 351 351 350 349 349 349 349 348 348 350 347 346 345 346 346 345 346 345 345 345 345 345 343 342 341 343 343 343 343 341 342 344 344 344 345 344 344 345 341 342 338 334 333 333 334 341 341 341 338 336 336 336 337 336 335 335
342 344 348 350 351 354 354 354 354 354 355 355 355 355 355 354 354 354 355 354 354 354 353 353 353 352 353 352 352 351 351 350 349 349 348 348 348 348 351 348 348 348 347 349 349 347 345 345 346 346 344 343 342 343 343 344 343 341 341 341 344 344 343 344 344 345 344 344 339 337 335 334 334 334 338 341 342 340 338 336 334 335 335 336 336
343 346 348 350 351 353 353 353 353 355 354 356 356 355 355 355 354 354 355 354 354 353 353 353 352 353 352 351 351 350 350 350 350 350 350 351 348 347 347 346 345 345 345 346 347 347 346 346 346 346 344 343 343 343 343 343 341 341 341 342 343 344 344 344 345 344 341 338 338 336 336 337 331 333 337 340 342 341 338 336 335 335 335 335 334
345 346 349 350 352 352 352 353 353 355 355 355 356 355 355 355 355 355 354 354 354 353 353 352 352 352 352 351 350 350 349 349 349 349 348 350 349 347 346 346 345 345 345 345 346 346 345 346 346 345 344 343 344 343 342 342 341 341 341 342 342 342 343 343 344 338 336 334 337 336 338 341 335 336 339 340 342 341 337 335 334 334 334 336 335
345 349 349 350 354 351 352 352 353 354 355 355 355 355 355 355 355 354 354 354 353 353 353 352 352 352 351 351 350 349 350 349 349 348 350 350 348 346 346 346 345 345 345 345 345 345 346 346 346 345 344 344 343 343 343 342 342 342 342 341 341 341 342 342 342 337 335 338 337 335 334 337 338 339 342 342 342 341 339 338 336 335 335 335 335
347 348 350 351 352 351 351 352 353 353 354 355 354 355 355 355 354 354 354 353 353 353 353 353 352 352 351 350 349 349 349 348 348 348 347 348 348 347 346 346 346 345 345 344 344 344 346 346 345 345 344 344 344 344 342 343 342 342 342 342 343 343 343 344 340 340 337 337 336 335 334 336 337 341 343 343 343 341 338 337 336 335 335 334 333
348 349 350 350 350 353 351 351 352 353 353 354 354 353 353 353 353 353 352 352 353 352 352 352 352 350 350 349 348 348 347 347 347 347 347 347 346 346 347 346 345 345 345 345 345 346 346 346 345 344 343 343 344 343 343 342 342 342 342 342 343 342 344 344 343 338 336 337 337 335 335 336 337 339 339 340 340 339 338 335 335 335 335 334 334
347 348 349 350 349 351 353 351 352 352 351 351 351 351 351 351 351 351 352 352 352 352 352 351 350 350 349 349 349 348 348 348 348 347 347 346 345 346 346 346 345 345 345 345 346 346 346 345 344 344 344 344 343 342 342 342 341 341 342 341 343 344 345 342 342 337 337 336 335 335 334 334 341 339 339 340 339 338 337 338 336 335 335 334 334
348 347 349 348 348 350 351 353 351 350 350 350 350 351 351 351 351 351 351 352 352 351 351 351 349 349 348 348 349 349 349 348 347 347 347 346 346 346 345 345 345 345 345 345 345 345 344 344 345 344 344 343 342 342 343 343 342 342 342 343 344 345 346 347 340 338 337 335 335 336 334 335 341 339 339 339 338 337 338 339 337 336 335 334 334
347 348 346 348 348 348 349 349 351 350 350 349 350 350 350 350 350 350 351 351 350 349 350 348 348 349 349 350 349 348 348 348 347 347 347 346 346 346 345 345 345 345 345 345 344 345 345 344 344 344 344 343 342 343 342 343 342 343 343 342 344 345 345 346 342 336 335 336 334 333 333 334 340 338 339 338 337 337 338 339 336 335 335 334 333
346 348 346 347 346 347 348 349 350 349 349 349 350 349 349 349 348 349 349 349 349 350 349 348 347 347 349 349 348 348 347 348 348 347 347 345 346 346 345 345 345 345 345 345 345 345 344 343 342 343 343 342 342 342 343 342 342 342 341 344 343 344 346 347 342 337 337 338 333 335 334 340 341 338 339 339 338 337 337 337 338 336 334 334 333
347 344 345 346 346 347 348 349 349 347 348 348 348 348 348 348 348 349 349 349 349 350 350 350 350 350 349 349 349 347 347 348 348 347 347 346 346 345 345 345 345 345 344 344 343 343 342 342 343 342 342 341 342 343 342 342 341 341 343 344 344 345 347 346 338 336 337 335 335 335 336 341 339 338 339 339 338 338 338 338 337 337 335 334 334
344 344 346 349 348 348 349 348 348 348 348 347 347 346 347 347 348 349 348 349 349 350 349 350 350 349 349 349 348 347 346 345 347 346 346 346 345 344 345 345 345 344 344 343 343 343 342 343 342 343 342 342 341 341 342 342 343 343 343 344 345 346 342 340 339 337 336 336 337 336 342 340 338 338 339 338 338 337 338 338 337 336 336 335 334
342 344 345 346 347 347 347 347 347 346 346 346 346 344 344 345 346 348 348 348 349 349 349 349 349 349 348 348 346 346 345 345 345 345 347 345 346 345 345 345 344 344 343 342 342 342 342 342 342 341 342 342 342 341 341 343 343 344 344 344 345 342 340 340 333 337 336 336 337 338 343 341 339 339 339 338 338 338 338 338 339 338 337 335 335
339 340 342 343 345 345 344 343 342 344 347 346 343 343 343 343 343 345 347 348 349 349 348 347 347 346 349 346 344 346 344 344 344 345 344 345 345 345 344 344 344 343 342 342 341 341 341 341 342 342 342 342 341 339 339 342 343 344 345 345 343 340 342 338 338 335 335 336 338 341 342 341 338 337 336 336 336 337 338 338 339 339 338 336 334
338 340 340 342 343 344 343 341 341 343 343 345 344 343 342 344 344 343 344 345 346 345 344 344 343 345 343 342 344 345 345 345 346 343 343 345 344 344 344 344 344 344 343 342 341 340 340 341 342 342 342 342 341 338 337 337 340 344 344 343 341 341 342 342 335 336 335 337 338 342 341 341 338 337 335 334 338 338 339 340 340 339 337 336 335
339 340 341 342 342 341 342 342 341 342 342 343 345 342 343 344 343 343 343 343 343 342 343 343 342 342 341 343 344 345 345 346 345 345 344 344 343 344 344 343 343 343 343 342 341 340 340 341 341 341 341 340 334 333 335 337 339 339 340 341 339 340 341 340 335 335 335 339 339 343 341 341 339 337 336 336 336 338 341 340 340 340 338 336 334
340 341 341 340 341 344 345 342 344 342 342 342 343 341 344 343 341 342 342 342 341 341 342 341 343 340 338 341 341 341 342 343 342 341 340 345 342 342 342 341 341 341 343 340 339 338 339 335 335 338 336 334 333 334 335 336 339 338 339 339 339 338 340 338 335 334 334 338 340 342 341 342 339 339 338 335 335 341 341 341 339 339 337 336 335
341 339 339 340 339 341 344 343 340 341 343 342 343 343 344 343 344 344 341 341 340 339 340 340 341 342 340 341 342 341 341 342 341 340 342 342 343 342 339 340 339 339 341 343 341 341 335 335 333 332 333 337 336 336 337 341 338 336 336 339 340 341 337 334 335 335 336 338 340 342 342 341 341 339 338 336 335 340 341 340 339 338 337 337 336
338 338 339 339 338 339 340 341 340 341 341 340 342 343 342 342 343 344 341 340 339 339 339 339 337 342 340 340 340 341 341 338 338 340 340 341 341 342 342 344 342 343 339 339 340 341 337 336 336 335 336 337 336 334 336 338 339 336 338 337 337 337 338 334 335 334 335 337 341 342 342 341 340 340 338 338 337 339 341 340 336 335 335 337 337
338 338 339 340 338 338 337 336 341 341 342 343 342 342 343 343 342 344 343 343 343 338 336 339 340 341 340 340 340 339 339 340 340 340 340 340 340 342 344 343 344 343 345 345 338 339 337 340 338 337 336 334 335 334 333 334 338 342 335 337 340 335 336 338 335 334 333 336 338 341 342 342 341 341 338 338 338 337 337 335 335 334 333 337 337
337 339 339 338 339 339 339 338 339 340 341 343 341 341 342 342 342 342 341 344 340 339 337 337 338 342 340 340 341 340 340 339 339 340 339 337 339 338 341 341 341 341 341 341 341 340 338 338 338 336 335 334 335 336 332 333 337 338 336 335 335 335 335 338 336 334 333 334 336 340 341 341 341 341 338 337 337 337 337 337 336 334 333 338 338
339 339 339 339 338 340 338 339 339 340 340 341 341 341 341 342 342 339 343 340 339 337 338 337 336 340 339 339 341 343 342 340 335 337 337 336 336 338 338 341 341 340 341 338 341 337 336 335 336 335 331 332 333 337 332 333 333 336 336 333 334 336 336 337 335 341 334 334 336 339 341 341 341 342 340 337 337 336 335 337 336 336 333 334 338
339 339 338 338 339 338 338 340 342 342 340 340 342 342 343 339 339 337 337 337 339 339 339 339 339 340 340 343 342 343 343 340 335 335 336 336 334 338 339 341 341 338 340 339 338 338 336 332 334 334 332 336 334 332 331 332 333 333 336 334 334 334 335 338 336 334 335 333 335 337 340 340 340 340 340 340 339 338 336 336 336 336 335 334 334
338 339 339 339 338 338 340 338 342 342 340 339 340 339 338 338 337 340 341 340 340 340 337 338 339 339 342 343 343 341 342 340 338 336 336 335 336 335 338 339 338 340 340 339 340 338 335 334 333 336 339 336 334 331 337 333 331 335 334 334 335 337 339 337 336 338 342 334 333 335 337 339 340 340 339 340 339 339 338 338 335 335 337 336 334
338 341 341 341 336 338 337 340 339 339 339 340 339 336 335 336 336 337 341 341 342 341 339 340 338 339 343 341 340 339 340 342 340 336 333 334 336 337 338 340 342 340 339 338 337 337 336 335 334 339 339 339 336 332 332 333 332 331 333 333 334 336 338 335 336 337 335 339 339 335 336 336 338 340 340 340 339 340 339 339 339 337 336 336 336
336 337 342 339 341 338 337 337 339 337 337 336 336 337 337 339 338 338 338 340 343 341 344 344 344 342 342 341 340 340 340 340 339 339 336 336 337 338 339 341 339 338 337 337 337 336 336 334 333 339 337 336 332 333 332 331 333 334 334 334 334 336 337 335 335 336 338 334 339 338 338 337 336 335 337 341 340 339 339 339 339 339 339 339 338
336 339 338 338 337 338 338 336 338 334 336 335 337 336 335 334 336 340 340 343 342 343 343 342 342 342 341 339 340 340 340 339 339 342 341 339 340 340 337 337 340 338 338 338 338 336 334 333 333 332 334 335 335 335 333 334 336 335 334 338 334 335 338 337 337 334 336 337 336 336 338 336 338 336 335 337 339 340 339 339 340 340 339 339 338
337 337 337 337 335 338 339 335 335 334 336 337 337 338 337 337 339 340 343 343 344 341 346 344 343 343 341 338 337 339 337 338 340 341 340 340 340 340 339 338 340 339 336 339 338 336 334 334 335 332 332 331 332 334 335 334 335 336 337 335 336 335 337 335 334 336 337 338 336 338 339 339 336 337 335 334 336 338 340 339 339 339 339 339 338
338 337 336 336 336 337 338 336 334 335 336 335 338 338 340 339 339 344 342 344 342 342 344 345 345 346 348 342 342 341 339 340 341 340 340 340 338 338 339 340 339 337 337 338 336 337 334 333 332 334 333 330 332 333 334 334 334 334 334 335 335 334 336 337 333 335 335 336 334 338 337 337 338 337 335 332 336 336 338 339 339 339 339 339 339
338 337 337 335 334 336 338 338 338 339 340 339 337 337 339 339 340 339 342 338 339 341 342 341 341 342 344 343 342 343 342 340 341 339 340 340 337 336 334 338 335 335 335 337 336 336 335 335 332 336 333 331 333 331 331 332 332 332 332 335 335 335 336 338 335 338 336 333 334 336 336 337 338 335 334 335 336 334 335 334 332 334 336 337 339
338 338 337 337 335 335 337 338 339 340 340 339 339 341 341 341 340 340 338 339 339 340 342 340 340 341 342 342 342 342 342 340 339 339 339 338 338 336 334 333 335 337 336 336 337 333 333 336 335 334 335 335 334 333 332 331 331 331 331 333 333 334 334 335 335 334 336 334 333 334 336 335 334 333 336 336 336 336 333 331 333 334 335 336 337
336 340 336 335 336 336 337 338 340 342 341 341 339 338 339 338 337 338 336 338 337 336 342 341 339 339 343 345 341 344 341 340 338 340 340 337 336 334 335 336 337 338 337 335 333 332 333 335 334 335 334 332 332 332 335 331 332 331 331 332 332 332 331 334 332 333 336 333 332 333 332 333 333 334 334 333 335 336 335 335 337 337 338 335 336
337 338 332 331 332 332 334 336 340 342 340 337 337 337 335 335 337 336 335 336 333 335 336 338 339 338 340 340 340 342 341 341 340 340 338 334 336 336 335 337 339 338 338 336 335 331 335 335 335 335 332 331 331 334 335 332 329 327 329 330 330 333 332 333 334 331 331 332 332 329 330 331 329 331 333 335 334 335 332 335 336 335 336 337 333
336 333 328 330 331 330 331 332 336 339 339 337 335 336 335 333 332 331 332 332 329 329 330 335 337 338 340 341 341 343 342 342 340 340 340 337 334 335 335 336 338 336 338 340 339 336 334 333 334 334 334 333 331 335 335 332 327 325 324 324 327 328 331 331 330 328 329 326 326 326 326 324 323 326 330 331 332 332 334 333 334 334 336 336 336
335 329 329 331 332 332 332 333 336 335 335 334 335 334 335 334 331 328 329 331 330 334 330 333 335 334 340 340 341 340 340 338 340 340 334 334 333 333 333 335 335 336 336 336 337 337 336 334 335 332 327 330 332 333 332 332 326 326 327 323 318 319 324 328 328 328 328 328 326 324 325 322 322 323 326 328 329 331 331 333 333 334 335 336 337
335 330 330 331 331 331 332 333 333 333 335 334 332 333 332 331 330 334 331 332 331 333 335 337 334 333 334 337 342 342 339 337 337 335 336 335 334 333 333 332 336 337 337 336 336 335 336 337 335 332 331 325 328 328 332 331 330 325 318 319 319 319 313 317 321 327 326 323 325 322 323 322 323 324 325 326 327 329 330 331 332 332 333 335 334
335 333 330 331 332 332 333 332 331 334 337 335 332 330 329 329 331 333 332 331 334 335 336 333 334 331 333 335 336 338 339 336 337 335 336 334 336 335 335 335 336 337 337 337 337 336 336 336 335 332 331 327 325 327 327 329 330 331 325 318 316 314 314 318 319 322 326 322 320 320 324 320 320 323 323 325 327 327 328 328 328 330 331 331 333
335 335 334 333 333 333 333 333 333 335 336 337 334 330 331 330 330 328 330 332 329 333 331 328 328 334 327 336 333 333 334 335 335 335 335 335 336 337 337 335 335 335 335 336 337 338 337 335 333 333 331 331 329 324 324 329 330 329 331 329 326 319 316 320 319 313 324 323 323 320 319 320 321 321 321 320 321 322 327 327 328 327 329 330 332
335 336 335 334 335 335 335 335 335 336 339 340 335 333 334 332 331 330 331 332 331 333 337 335 333 329 339 335 333 341 332 334 335 336 335 335 335 335 334 334 333 334 335 336 334 335 334 332 336 335 334 333 333 326 324 325 330 329 330 330 330 328 327 320 316 317 311 317 318 316 317 319 320 320 320 320 320 324 323 325 327 329 331 332 328
335 336 336 336 335 334 334 334 334 334 334 336 339 339 336 334 335 334 334 330 329 330 332 330 333 329 332 334 330 337 334 332 337 333 334 335 337 334 333 333 333 333 333 332 334 336 335 335 334 336 335 333 331 328 326 325 325 326 329 328 327 328 328 327 324 322 315 310 309 315 317 319 320 321 319 319 319 321 324 321 322 323 322 319 318
335 335 334 333 333 333 332 333 333 333 332 334 337 335 334 336 336 332 327 326 327 329 327 330 331 335 334 341 337 329 332 333 330 334 335 333 335 333 334 335 334 334 329 328 332 331 334 333 334 334 335 333 334 331 331 327 326 326 328 326 328 327 325 326 327 325 321 311 309 310 310 317 318 320 321 319 320 322 322 322 321 320 319 317 315
335 335 335 334 332 331 331 332 332 332 333 333 335 334 335 336 334 331 325 326 327 328 328 329 330 336 332 330 334 332 330 336 337 335 335 331 333 335 333 331 332 328 328 328 331 333 333 335 335 337 335 333 333 333 331 332 329 327 330 329 326 325 324 324 324 322 320 320 309 309 311 311 309 314 319 319 318 319 317 317 317 317 316 314 314
334 333 333 333 333 332 331 331 332 332 333 332 334 332 334 333 332 329 327 326 328 329 327 327 329 332 327 331 335 333 336 330 333 334 334 332 334 335 333 332 332 332 330 328 331 330 334 335 336 335 334 332 332 331 330 331 330 328 327 328 326 324 322 320 320 320 318 314 310 310 311 310 309 312 316 317 314 313 315 317 316 315 315 314 312
Wind_Speed
13 17 14 16 15 15 15 12 17 17 16 16 16 18 19 19 18 18 17 17 16 16 16 15 15 14 14 13 13 13 13 13 13 13 12 12 12 13 13 13 14 14 14 14 14 13 13 13 12 12 12 12 12 12 12 13 12 13 12 13 14 14 13 14 13 14 15 17 17 16 16 13 17 17 17 17 17 16 15 15 14 11 7 10 15
16 14 13 15 16 16 16 16 17 17 16 16 17 18 19 18 18 18 17 16 16 16 16 15 15 14 13 13 12 12 12 12 13 13 12 12 12 12 11 12 12 12 12 12 13 13 13 13 12 11 11 11 12 12 12 12 11 12 13 12 12 11 11 12 13 12 14 16 17 16 15 17 17 16 17 18 16 16 16 18 17 9 5 13 16
15 14 12 16 17 17 15 16 17 17 16 16 17 18 19 18 18 18 17 16 16 15 16 15 14 14 13 13 12 12 12 12 12 12 12 11 11 11 11 11 10 10 12 13 12 12 11 12 12 11 11 11 11 12 12 12 13 12 12 11 9 8 8 10 12 13 13 15 17 18 19 18 16 17 18 18 16 17 17 16 16 14 10 15 14
17 12 11 14 16 16 16 16 16 16 16 17 17 18 18 18 18 17 17 16 15 15 15 15 14 14 13 13 12 12 12 12 11 11 12 11 11 11 11 10 9 9 10 13 12 10 10 10 11 11 11 10 10 11 12 12 12 12 11 9 6 7 8 7 8 9 11 14 16 14 9 8 11 17 16 17 16 16 17 17 16 15 15 14 17
17 13 12 12 13 14 15 15 15 15 16 17 16 17 18 17 18 17 16 16 16 15 15 15 14 14 13 13 12 12 12 11 11 10 10 10 10 11 10 9 8 9 9 9 8 9 9 10 10 11 10 10 10 10 11 11 13 12 10 6 5 4 5 6 4 6 9 11 11 10 10 10 10 15 15 15 15 14 15 16 16 15 14 16 15
15 13 12 11 12 14 15 15 15 16 16 17 16 17 17 17 17 16 15 15 15 15 14 14 14 14 13 13 12 12 12 11 11 10 9 8 6 9 9 9 8 9 10 8 8 8 9 9 10 10 10 10 10 9 9 10 10 10 7 5 3 2 1 2 2 5 4 7 8 3 8 9 10 9 15 15 16 14 16 16 15 14 14 14 14
16 11 12 11 10 13 14 15 16 16 17 16 16 16 16 17 16 16 14 14 14 14 14 14 14 13 13 13 13 12 12 12 11 10 9 7 7 6 8 8 8 8 9 9 8 7 8 9 9 9 10 10 9 10 9 9 9 8 5 2 4 2 4 1 2 3 3 3 3 3 7 10 8 8 15 14 15 15 15 15 15 14 14 15 14
14 11 12 11 11 13 14 15 16 17 17 16 16 16 16 16 17 16 14 14 14 14 13 13 13 12 12 12 12 12 12 12 11 10 9 8 7 6 6 8 7 7 9 9 8 8 7 8 8 9 10 9 9 9 9 8 8 6 2 1 4 7 6 7 6 6 9 4 6 5 9 9 8 8 13 14 15 17 16 15 15 15 16 15 14
14 14 13 12 13 16 14 15 16 17 16 17 16 17 17 16 15 15 14 14 14 14 13 13 13 12 12 11 11 11 11 11 11 10 9 8 8 7 6 6 5 6 8 7 8 5 7 7 9 9 9 9 10 9 9 8 7 4 1 3 6 9 8 8 7 10 7 5 9 9 11 9 8 7 12 15 16 18 18 13 12 15 15 15 15
15 13 13 11 14 16 16 16 16 16 18 15 16 16 16 16 16 15 14 14 14 14 13 12 12 12 11 11 11 11 11 11 10 10 9 10 8 9 9 7 7 8 8 9 9 9 8 9 9 9 10 10 9 9 9 8 5 4 3 4 7 8 9 8 11 9 6 9 12 15 12 13 9 8 12 14 16 18 18 15 12 12 12 15 15
16 13 12 12 16 17 17 17 17 16 15 16 15 15 15 15 15 14 14 14 14 13 12 12 12 11 11 11 11 11 11 10 10 9 10 10 9 9 9 8 7 7 8 8 8 8 7 9 10 10 10 11 9 8 8 6 5 3 4 3 8 8 10 9 11 6 3 11 13 10 13 16 8 6 12 14 16 17 17 15 14 14 15 16 16
15 13 12 11 15 16 16 17 17 18 15 14 14 14 14 13 13 13 14 15 13 13 12 11 11 11 11 11 11 12 11 10 10 9 9 10 9 9 9 9 8 8 7 8 8 8 9 9 9 9 10 10 8 8 7 5 4 3 3 4 8 8 9 11 9 7 5 14 14 11 10 12 9 10 14 15 15 17 16 14 13 14 15 15 15
15 13 12 13 13 13 15 16 17 17 16 14 14 13 12 12 12 13 14 13 12 11 11 11 10 10 10 12 12 11 12 10 9 9 8 11 10 8 9 9 8 8 8 7 7 7 9 10 9 9 9 9 7 6 5 5 2 2 4 6 8 9 10 11 7 8 7 11 12 13 11 8 7 14 14 15 16 16 15 14 14 14 14 14 14
15 13 12 12 12 13 14 14 15 15 16 14 15 14 13 13 12 12 13 12 11 11 10 10 10 11 11 12 13 11 12 10 10 10 10 9 9 7 7 8 8 8 8 7 7 8 9 9 8 8 7 7 5 4 4 3 2 2 5 7 8 9 10 9 8 4 6 13 11 12 9 6 7 11 13 13 14 15 14 14 14 14 14 14 14
14 13 12 11 13 13 14 13 14 14 14 14 13 13 13 12 12 13 12 12 11 11 11 11 12 11 11 12 13 12 13 12 11 10 11 10 8 7 7 7 8 8 8 9 8 7 8 8 8 7 6 5 4 3 2 2 0 2 6 7 8 9 9 6 8 3 10 12 10 12 9 6 9 11 13 14 13 13 14 13 14 14 13 13 13
14 13 12 11 13 11 11 14 13 13 15 14 12 13 13 13 13 13 13 12 12 12 12 11 12 12 12 12 14 14 13 12 12 11 11 10 9 8 7 7 8 8 9 9 10 9 8 7 8 7 6 5 4 3 3 2 1 1 5 8 8 9 8 8 6 1 8 11 11 10 9 7 10 13 12 13 13 11 13 14 13 13 13 12 13
12 12 13 12 12 12 11 12 11 15 13 14 13 13 13 13 13 13 12 12 12 13 13 13 9 11 12 12 13 13 13 12 13 12 12 11 10 9 9 8 8 8 9 9 8 8 8 8 7 6 6 6 5 5 4 3 2 1 4 7 9 8 8 8 6 2 7 11 11 8 6 7 9 11 12 12 11 11 12 13 13 13 13 13 13
11 11 12 13 13 11 11 11 12 11 10 12 13 14 13 14 14 13 13 12 11 12 13 14 13 12 12 12 13 13 13 13 12 12 12 11 10 9 9 9 8 9 9 9 9 8 8 7 6 6 6 6 6 6 5 4 2 0 5 8 8 8 8 9 6 5 11 12 10 8 6 9 11 10 11 12 12 11 11 12 13 13 12 12 12
9 10 11 13 12 11 11 11 12 11 10 8 8 10 12 12 13 13 13 13 12 11 12 12 12 12 12 12 12 12 13 12 12 11 11 11 10 9 8 9 9 9 9 9 8 8 6 6 6 5 6 6 6 6 6 4 3 2 5 7 8 9 10 6 3 10 10 8 8 7 6 12 12 10 11 11 11 11 10 10 12 12 12 12 12
6 9 8 8 10 9 9 9 9 9 8 7 7 9 10 11 12 12 13 13 12 10 11 12 13 12 13 13 13 11 11 9 11 9 10 11 9 6 7 9 9 9 8 8 7 7 6 5 6 6 6 6 6 6 6 5 4 4 5 6 9 10 5 6 2 12 9 7 8 6 8 13 13 11 10 11 11 10 10 10 10 12 11 11 11
6 5 8 9 9 9 10 7 8 9 9 8 7 7 8 11 9 11 12 12 12 11 11 12 11 11 10 10 10 7 6 6 6 6 10 7 7 8 8 9 9 9 8 7 7 6 5 5 6 6 6 7 6 6 5 6 5 5 6 6 7 5 6 1 8 9 8 7 7 6 9 11 12 11 11 10 10 10 10 11 10 11 11 10 10
8 9 10 11 8 9 13 10 8 9 5 6 5 5 6 8 7 6 7 9 10 11 9 7 9 6 9 5 5 5 5 3 4 7 4 7 8 9 8 9 8 9 8 7 6 4 4 5 6 7 6 6 8 3 4 6 7 6 6 6 4 5 4 3 6 9 9 7 6 6 10 11 11 10 10 10 9 10 9 10 11 11 11 10 10
9 8 8 10 8 9 11 9 10 6 6 5 5 5 7 5 7 7 6 8 9 8 6 8 6 6 5 5 5 4 5 4 3 5 5 5 7 9 9 9 9 8 8 7 6 5 4 5 7 7 5 6 4 4 4 4 4 7 5 3 4 5 2 2 8 9 8 7 6 10 10 11 11 9 8 9 10 9 10 10 12 12 11 11 10
10 9 9 9 9 10 11 10 11 7 6 5 4 6 6 6 6 6 6 6 7 7 8 7 6 6 5 5 5 4 4 3 5 7 6 5 5 8 9 8 8 8 8 5 5 4 5 7 7 7 4 4 4 5 6 6 4 4 3 4 4 4 2 2 8 7 7 9 7 10 9 10 11 10 9 9 8 9 10 10 11 11 11 10 10
9 10 9 9 11 9 9 9 8 8 7 6 6 7 6 5 6 6 6 6 6 6 6 6 6 5 5 5 5 5 4 3 3 3 1 2 4 4 4 4 3 4 7 3 3 3 3 4 4 4 4 4 6 5 4 5 6 6 5 6 6 4 2 7 7 7 7 7 6 9 9 7 10 10 10 8 8 11 11 11 10 10 10 9 9
10 9 10 11 7 8 6 8 9 10 8 5 7 7 7 5 6 6 7 6 6 6 6 5 5 4 5 5 4 5 4 3 3 2 2 1 1 2 4 4 4 4 5 1 2 2 3 4 4 4 5 6 5 7 4 2 3 4 6 3 2 2 3 6 8 7 6 6 7 10 8 6 7 10 10 9 8 10 10 10 10 9 9 9 9
9 10 11 9 8 7 7 4 9 8 8 9 7 6 7 6 5 6 6 7 6 7 7 5 4 3 5 5 5 3 2 3 3 3 2 0 1 1 1 2 1 1 4 2 2 2 3 4 4 4 5 6 8 4 4 3 3 3 2 3 3 2 3 7 8 7 6 6 7 11 8 8 6 5 9 10 8 10 10 11 8 7 8 9 9
8 9 10 11 10 11 9 6 8 6 6 8 7 6 6 6 6 7 6 5 5 8 7 2 5 4 4 5 4 4 3 2 2 2 2 1 2 1 1 1 1 0 2 1 2 2 3 2 4 7 6 7 2 3 3 4 2 0 3 2 1 8 6 6 7 7 6 5 5 8 8 7 6 2 7 9 9 9 9 6 7 6 5 9 8
9 8 8 11 12 12 12 12 11 9 8 7 8 7 6 6 5 5 5 5 4 5 10 5 2 1 1 5 5 5 4 3 2 3 1 1 0 2 1 0 1 0 1 1 2 2 3 4 5 6 7 4 3 2 3 4 3 2 2 2 8 4 6 7 4 7 6 5 5 6 8 8 6 4 5 6 7 8 7 7 7 6 5 8 8
8 7 8 7 11 10 12 12 12 12 12 8 7 6 6 6 5 4 5 6 5 4 8 5 3 2 0 1 3 4 4 5 4 1 3 3 2 1 2 2 1 1 1 2 2 2 5 6 5 7 4 3 2 1 4 3 3 4 3 5 10 9 8 7 4 3 7 6 6 5 7 8 6 4 4 6 6 5 5 6 5 7 5 6 7
8 8 7 8 11 12 10 9 10 10 9 10 6 6 5 5 5 4 3 4 6 8 2 4 7 4 5 4 4 3 4 6 3 3 2 2 1 3 3 1 2 1 1 1 1 2 3 5 9 5 3 2 2 4 5 3 4 5 5 7 9 6 2 2 4 2 4 6 6 5 5 7 7 6 5 5 6 5 4 5 7 6 5 4 5
7 7 5 6 11 8 9 10 7 7 6 5 3 6 4 6 7 7 4 7 6 2 7 5 3 2 3 4 3 4 2 6 7 4 2 2 1 2 2 2 2 4 3 3 2 1 1 4 13 8 4 4 2 4 2 5 6 3 6 6 5 5 2 3 4 2 2 5 5 4 4 4 7 8 7 6 6 6 6 5 5 6 7 6 4
5 6 6 6 12 6 5 5 7 5 7 2 5 10 8 3 1 6 5 4 7 6 7 7 9 8 5 4 3 3 3 3 6 7 4 4 5 4 2 2 1 1 2 3 2 1 3 4 11 9 3 1 3 4 4 7 8 7 6 5 5 6 4 5 3 2 1 2 3 6 5 5 4 6 8 8 8 7 6 5 4 3 4 5 6
7 5 5 8 7 6 7 4 4 7 6 7 8 7 7 3 3 5 4 2 3 4 3 4 4 5 5 5 4 4 4 4 4 6 5 4 4 3 2 0 1 1 3 2 1 1 1 2 6 5 1 1 3 4 6 5 5 7 5 4 4 4 4 5 4 2 2 3 1 3 4 5 5 3 3 6 7 7 7 5 4 3 1 3 3
6 7 8 9 8 9 6 6 8 9 10 9 6 7 8 7 7 4 4 3 3 3 4 4 3 4 4 4 4 3 4 5 3 3 4 5 4 3 2 1 1 2 1 2 0 1 2 3 6 10 3 2 6 4 5 5 5 7 5 4 3 3 1 1 3 3 2 2 4 3 4 4 4 5 5 3 2 4 6 7 6 5 4 1 1
8 8 7 8 10 8 9 13 11 10 7 7 4 5 6 5 5 4 5 3 1 3 2 3 3 4 5 4 5 4 3 3 4 4 3 2 1 2 2 2 2 1 1 1 1 3 3 3 2 6 10 3 4 3 3 4 4 5 4 4 4 2 1 2 3 2 2 2 2 2 1 2 3 6 8 2 3 2 2 3 2 1 2 1 1
8 10 9 8 11 11 10 12 11 8 6 6 5 4 5 4 2 3 4 3 2 2 1 2 1 1 1 3 5 5 4 2 3 4 3 1 2 2 1 2 2 1 2 1 2 2 2 3 4 2 5 9 1 4 4 4 4 5 4 4 3 1 1 1 3 2 3 4 5 0 1 1 2 8 5 3 3 1 1 2 2 2 1 2 2
10 11 11 10 10 10 8 9 8 5 6 5 4 3 4 3 2 3 3 2 2 1 2 2 2 2 1 0 4 4 3 4 3 3 3 1 2 3 1 3 3 1 2 2 2 2 4 4 4 2 1 1 4 2 3 4 5 4 2 2 2 2 1 1 1 3 3 0 4 2 1 1 0 11 4 3 1 2 1 3 2 3 3 2 2
4 7 9 10 12 9 9 9 6 6 6 5 4 3 3 3 3 2 3 1 1 2 2 2 2 2 1 2 3 3 3 5 4 4 4 2 2 2 3 3 4 3 3 3 2 3 1 1 3 3 3 1 5 8 5 5 4 3 2 3 2 2 0 1 3 2 1 2 5 5 2 1 8 6 2 2 1 2 3 0 0 0 1 1 2
9 6 10 14 12 10 7 7 4 6 6 4 3 3 3 3 3 2 2 1 1 2 1 1 2 2 0 2 4 2 4 5 4 4 4 1 2 3 3 4 5 2 3 4 4 3 3 1 0 0 4 3 6 3 1 4 3 3 3 3 3 2 1 1 4 3 2 2 1 7 7 5 8 3 4 2 3 3 3 1 2 2 3 6 8
8 10 17 14 13 10 5 5 3 4 4 3 4 4 4 3 3 1 0 1 2 3 4 2 2 4 3 2 3 3 3 3 4 4 6 4 2 2 1 2 2 2 3 3 6 7 4 4 2 1 3 3 3 2 1 4 4 3 3 3 2 3 2 4 0 1 2 1 3 4 7 8 9 8 4 1 4 4 1 2 2 1 2 3 4
10 16 17 11 11 10 10 4 4 4 6 6 4 4 3 2 1 3 2 4 4 3 5 4 4 5 4 1 3 1 2 3 4 4 3 5 2 3 4 2 1 1 0 2 3 7 6 4 4 3 2 1 1 0 1 2 1 2 3 2 1 2 2 1 3 2 1 5 5 6 3 6 6 4 7 2 2 4 3 2 1 1 2 3 2
13 18 15 12 10 7 5 5 4 5 6 5 4 4 3 4 3 3 8 1 5 4 6 3 4 4 3 3 3 4 1 4 3 3 6 4 3 4 4 4 4 2 1 1 2 5 5 6 5 6 1 1 2 2 1 2 3 1 1 2 2 2 1 1 1 1 1 2 4 7 6 6 8 6 5 7 3 3 4 1 0 1 3 1 3
13 14 12 12 9 7 8 7 6 5 5 6 5 4 4 2 4 7 5 7 4 4 4 3 4 5 4 4 2 2 4 3 5 3 5 4 4 4 3 3 1 1 1 2 3 5 4 2 5 6 6 4 1 1 1 2 1 4 2 1 1 0 2 0 1 1 2 3 1 5 4 6 7 7 6 5 6 4 2 1 3 4 2 2 3
11 14 12 9 6 9 9 7 6 6 6 5 3 5 5 2 6 2 5 4 2 2 2 3 3 4 3 3 3 4 2 7 5 6 6 1 3 3 2 3 2 1 1 0 1 3 4 3 3 6 5 7 5 2 4 3 5 2 1 3 2 1 1 2 2 0 1 1 5 5 3 6 5 5 8 6 5 8 5 2 3 4 3 2 2
11 12 11 10 9 8 10 9 7 6 6 5 4 5 4 6 3 4 2 1 3 2 3 2 3 1 4 3 3 4 3 4 4 9 9 8 5 3 2 3 4 3 2 1 1 0 1 3 3 5 3 4 7 6 3 3 2 1 2 2 1 0 5 2 2 3 0 3 2 6 3 4 3 6 7 7 6 5 8 3 1 3 3 2 2
10 11 12 12 12 12 11 10 9 7 7 6 7 7 7 4 5 5 4 3 3 3 2 3 4 4 2 3 3 2 4 3 3 3 3 3 4 4 3 3 4 5 3 1 1 2 3 3 2 4 3 5 4 7 7 4 1 0 1 1 1 1 3 3 2 2 3 3 6 7 8 8 9 8 8 6 3 3 5 7 5 2 3 3 4
11 11 12 10 11 10 8 8 7 8 6 4 2 5 5 4 3 3 2 4 5 3 3 4 3 4 3 2 4 1 3 4 2 2 3 3 1 3 4 5 6 5 7 6 4 2 2 2 3 2 2 4 3 4 6 5 3 2 2 1 0 0 2 4 3 1 3 4 5 7 7 8 7 6 6 5 3 2 4 5 6 5 5 9 8
11 10 10 7 7 9 9 9 6 7 8 6 3 5 6 4 2 3 5 5 4 3 3 2 3 2 1 1 2 4 6 5 4 2 2 2 1 3 2 2 2 1 7 6 4 2 1 4 4 2 2 4 3 3 2 6 5 3 4 1 1 2 3 2 1 1 1 5 5 6 4 3 4 3 5 5 4 2 2 4 7 8 7 7 7
6 9 10 8 8 8 10 10 7 7 8 8 6 6 5 4 3 4 6 4 4 3 3 3 3 0 2 3 2 4 4 2 2 3 1 4 3 2 2 3 4 5 5 6 5 3 4 1 2 2 5 5 3 2 3 2 3 3 2 2 2 2 3 1 0 0 0 1 6 6 5 5 4 1 2 4 4 4 6 7 7 9 8 7 6
8 10 10 9 8 9 10 11 9 7 7 8 7 8 5 4 5 6 5 5 4 4 4 3 3 2 2 1 1 2 2 5 3 3 3 4 3 2 2 2 3 4 2 3 3 3 2 2 3 4 4 4 3 4 3 2 3 6 6 2 3 4 4 3 3 2 3 2 6 6 6 6 4 2 1 3 5 6 6 6 6 7 8 7 6
Wind_Direction
129 127 127 131 130 129 125 119 132 133 123 120 121 122 120 120 120 119 118 119 116 115 114 111 110 108 107 103 101 101 100 102 105 107 106 105 104 102 105 110 108 110 114 111 108 105 106 100 97 92 89 90 91 88 79 78 87 91 82 77 79 82 92 94 96 97 93 86 87 79 71 74 66 62 60 55 54 56 62 71 68 60 51 70 84
132 126 126 129 127 126 127 128 134 132 125 121 121 120 120 121 120 119 118 119 117 117 117 114 112 110 109 106 103 103 102 103 106 109 111 110 109 109 109 110 112 110 108 107 107 108 103 98 96 95 95 90 85 82 82 80 76 86 86 83 84 90 94 97 95 100 103 99 95 94 80 66 64 68 68 63 63 66 64 62 71 74 65 74 77
122 122 125 130 123 125 124 129 134 132 126 121 118 119 120 122 121 120 119 119 119 120 119 117 115 114 112 109 107 105 104 103 107 110 111 112 113 112 109 108 107 110 108 108 109 107 103 101 97 94 85 81 85 84 80 76 78 83 86 84 90 102 106 107 107 107 108 113 111 97 84 75 68 70 73 74 73 69 66 70 73 73 64 64 62
120 122 122 121 121 123 126 131 132 131 128 123 117 118 120 122 122 121 121 122 122 121 120 119 117 115 113 112 111 109 108 107 108 112 115 117 120 116 112 112 118 115 112 115 117 115 106 99 101 97 95 88 86 83 77 74 76 77 82 90 106 102 102 103 112 114 124 130 129 100 92 80 70 69 75 78 74 70 67 67 74 72 75 71 69
117 122 124 124 122 124 129 129 130 129 127 126 117 118 122 122 122 122 122 124 124 123 123 120 118 115 114 115 114 112 110 110 110 113 117 124 124 120 121 117 116 112 107 101 103 108 108 103 100 99 97 93 86 94 79 77 75 73 74 85 78 80 90 99 114 140 145 156 162 95 97 91 74 67 81 80 73 67 74 76 77 78 76 71 67
117 124 128 127 125 130 128 128 128 127 128 125 119 121 121 121 123 124 124 122 123 122 119 118 116 117 117 118 116 114 112 109 109 108 113 117 116 122 122 120 116 118 114 118 111 113 110 110 105 101 99 93 91 92 94 84 80 76 69 48 47 1 34 118 147 164 181 192 234 301 88 78 74 70 78 78 78 73 67 72 76 80 77 76 77
122 126 128 123 127 131 125 127 128 128 127 124 125 124 125 126 126 127 124 121 121 120 119 118 117 117 117 118 118 115 112 110 109 108 105 103 96 106 122 122 124 122 124 124 126 120 114 113 105 101 98 95 97 99 93 82 82 77 77 27 316 270 272 235 290 261 253 215 243 248 88 85 81 70 62 71 76 74 69 65 63 68 80 74 75
125 130 125 123 127 127 126 128 129 128 127 123 125 128 129 129 130 128 124 122 124 123 120 120 119 118 118 117 119 117 115 114 114 116 112 107 104 96 105 114 119 114 127 135 129 120 114 108 107 101 98 98 98 98 89 87 86 88 90 322 308 317 328 338 336 306 296 269 252 120 80 85 79 70 65 69 78 81 74 69 71 61 64 69 74
129 128 123 122 129 130 128 130 129 129 127 127 127 128 130 132 130 128 126 125 125 125 123 122 120 121 120 119 117 116 115 114 113 112 114 114 109 97 95 100 98 100 72 63 101 117 117 116 105 106 101 97 94 92 90 90 94 102 78 334 337 328 326 326 322 314 284 214 55 87 96 90 82 75 69 72 71 67 64 59 67 69 73 74 71
128 125 121 123 138 131 133 130 129 127 132 128 128 130 132 132 134 131 127 127 126 125 126 124 125 122 123 120 117 115 112 111 106 101 91 81 101 100 95 89 82 79 85 84 91 87 85 105 112 110 106 101 99 91 86 88 84 70 21 353 333 312 313 325 330 311 291 73 74 71 73 79 77 75 72 71 73 74 70 71 73 76 76 77 75
129 126 122 131 138 136 135 132 131 128 126 127 128 130 131 133 132 128 125 126 127 129 129 129 128 126 125 123 121 118 110 103 106 100 99 83 85 107 106 102 95 90 86 87 86 87 93 103 107 113 111 106 105 102 95 90 82 48 16 330 311 310 320 315 316 295 202 94 87 87 82 84 72 71 82 79 77 78 78 78 82 84 74 68 75
127 113 123 129 135 136 133 134 134 132 123 122 127 130 132 131 127 123 126 127 128 133 134 133 129 128 125 124 120 107 105 108 100 101 93 84 83 104 107 106 103 100 95 92 91 91 96 104 114 115 115 118 111 105 102 95 80 49 340 338 305 315 319 321 311 306 62 83 82 77 79 79 84 86 84 83 82 83 82 82 74 69 67 67 72
113 115 119 134 141 133 131 132 134 132 128 124 132 132 132 127 118 120 123 123 130 132 132 129 125 123 120 109 98 106 109 106 108 105 99 85 71 71 111 111 112 110 109 109 112 109 109 111 117 118 124 121 122 119 116 103 74 26 315 306 308 308 311 312 291 287 85 97 91 86 86 92 86 86 87 84 86 85 83 81 80 75 76 77 75
112 113 124 134 140 132 128 129 130 131 134 136 137 137 131 122 113 116 118 124 125 126 124 121 117 113 113 119 126 123 116 115 117 112 107 97 83 74 83 113 117 120 112 102 103 110 110 115 122 124 128 123 117 110 115 122 92 296 305 298 304 307 310 304 300 246 100 87 90 90 79 79 92 88 84 83 83 86 88 86 79 75 71 72 74
113 121 125 129 137 137 129 128 128 133 134 138 137 130 120 114 115 116 118 120 120 120 118 117 114 114 121 128 131 127 119 120 117 121 114 114 107 102 97 107 119 117 115 116 114 117 121 128 120 114 107 109 106 103 91 103 315 321 290 303 298 303 315 318 314 62 94 101 102 100 99 90 90 96 90 86 86 87 88 87 85 83 85 86 85
121 125 127 126 134 134 137 132 128 132 138 136 129 124 121 121 122 122 123 122 120 119 121 118 122 125 132 136 130 126 124 123 127 127 125 128 130 120 118 122 127 120 119 120 127 134 131 121 120 126 129 125 124 112 105 95 50 311 299 297 296 302 312 312 302 303 96 98 98 96 96 97 96 93 93 91 89 92 93 88 86 87 85 78 74
119 127 125 125 132 140 144 148 138 137 133 132 132 130 128 125 121 120 118 119 119 121 116 114 121 133 131 127 125 125 123 124 128 130 135 135 130 128 135 134 127 128 124 126 128 127 124 135 133 134 136 133 133 121 117 110 101 27 282 288 286 304 309 308 291 48 59 100 101 99 102 104 104 102 103 100 94 96 98 92 88 88 86 88 86
120 121 128 134 139 148 149 146 142 139 138 135 133 132 126 124 121 121 119 118 121 120 125 131 138 134 125 126 123 125 128 130 129 135 137 137 129 125 132 135 132 127 128 131 131 132 139 139 147 157 154 150 146 133 121 120 110 312 273 279 297 310 304 311 287 76 83 89 90 95 105 109 103 98 99 105 105 99 96 94 95 95 91 87 86
115 139 137 143 146 145 146 144 147 149 142 139 140 129 123 120 118 118 118 120 122 124 123 123 125 123 125 121 119 122 126 130 134 135 136 137 131 127 135 133 129 131 139 141 143 147 142 147 159 178 167 159 159 146 138 134 157 234 259 287 303 296 302 290 260 94 87 84 97 104 109 109 106 107 106 106 110 105 97 99 102 97 93 91 90
126 146 135 134 142 141 141 141 139 140 141 143 139 138 128 117 116 116 122 121 122 121 123 124 126 125 124 121 121 117 121 128 130 128 132 138 139 134 133 131 133 139 140 141 141 146 152 169 183 182 180 166 173 168 162 163 172 213 254 275 284 303 312 283 232 87 96 95 99 103 112 118 116 113 110 109 111 109 106 106 107 101 97 96 93
141 140 135 147 144 141 134 121 133 143 148 148 140 135 128 119 118 119 122 126 128 128 129 128 128 126 121 123 120 118 110 121 135 131 141 140 139 135 141 139 142 144 144 142 144 147 161 187 203 199 196 183 173 180 182 184 191 205 239 257 275 290 264 235 87 97 94 103 105 104 118 117 119 118 117 115 107 113 117 113 110 106 97 94 96
155 156 156 154 146 148 145 135 139 143 140 137 135 123 128 126 136 133 131 135 136 135 133 134 132 127 128 105 67 81 119 125 121 140 133 135 139 143 146 146 149 147 142 142 142 146 177 208 224 221 215 201 188 186 201 206 203 204 225 248 276 272 297 11 75 101 102 102 103 103 118 119 117 120 121 120 117 118 120 112 111 105 101 98 98
158 153 160 163 160 147 152 144 141 126 142 132 133 135 137 144 147 149 144 146 145 139 140 137 131 133 113 89 76 64 75 89 132 149 135 141 134 145 152 154 155 153 150 148 152 174 203 226 239 243 237 235 220 227 196 179 191 200 222 240 255 275 311 42 73 86 97 102 95 101 113 120 118 119 126 119 120 121 118 119 115 107 103 102 102
154 162 158 168 162 162 160 151 139 158 153 147 145 142 152 163 156 153 148 153 149 151 146 140 134 121 110 91 85 86 86 68 109 107 114 118 134 144 155 160 162 158 156 154 164 196 219 244 255 259 254 240 230 226 208 171 168 165 203 221 228 231 195 105 81 95 104 107 102 100 109 124 121 121 124 118 118 118 116 118 115 112 108 108 108
153 161 156 164 165 155 152 136 146 168 163 155 172 155 153 175 161 154 157 155 160 153 145 113 116 125 119 101 109 98 91 100 80 72 37 108 150 154 157 164 164 170 167 183 174 192 212 233 235 236 241 231 229 232 216 153 156 172 192 212 210 157 225 87 106 95 93 97 105 101 98 112 129 130 122 126 128 122 123 119 117 115 116 114 115
148 157 155 157 131 143 122 142 164 172 164 172 168 156 168 176 155 160 159 160 162 155 128 130 127 112 108 98 90 103 118 107 77 118 102 13 34 184 174 173 179 175 173 331 248 175 197 247 236 208 228 238 231 238 136 169 187 174 182 179 106 196 131 111 99 100 100 102 105 104 105 111 138 134 124 124 129 121 121 120 120 121 123 122 122
161 157 150 147 143 150 146 165 170 174 170 174 181 158 173 168 148 163 168 171 171 150 126 119 105 108 118 126 122 114 111 118 134 167 128 99 212 315 250 114 69 92 168 174 229 234 234 245 256 248 227 245 222 195 134 167 225 168 153 136 195 158 123 100 106 105 104 104 104 108 109 106 86 122 134 127 125 127 130 135 122 123 122 123 128
162 154 152 145 157 156 171 180 165 155 160 170 163 163 169 157 165 167 172 171 152 111 94 96 113 140 146 121 125 129 121 96 152 118 71 28 359 297 73 57 58 336 26 45 218 223 255 248 258 266 262 235 206 170 163 170 177 77 115 175 189 58 40 88 103 101 108 109 112 112 113 107 113 114 145 139 130 138 144 117 112 111 125 126 123
151 154 151 151 155 154 158 170 165 171 160 161 174 168 169 164 159 172 160 153 56 88 111 114 81 76 130 132 148 144 142 146 124 100 111 67 2 308 18 255 146 95 28 9 304 305 254 246 243 246 242 218 203 203 169 133 127 81 33 45 56 87 70 25 49 110 113 122 119 121 124 118 106 96 126 144 146 136 137 130 123 126 117 128 133
145 144 148 153 131 153 165 171 167 174 167 167 168 170 162 161 157 105 17 73 80 63 120 134 112 149 328 146 166 149 138 127 123 92 147 183 213 203 243 197 155 91 216 237 38 342 316 303 270 249 223 227 183 182 94 118 99 70 57 57 49 12 35 43 44 11 119 113 115 132 129 122 105 89 98 123 131 133 136 131 121 112 117 121 142
131 144 151 151 126 158 157 162 178 165 161 170 164 162 130 100 59 53 172 116 129 130 78 137 152 206 183 187 156 137 138 124 131 168 155 159 197 226 213 194 136 145 242 79 56 300 307 293 286 293 229 298 174 120 135 142 112 68 45 68 85 60 11 71 69 47 105 117 123 139 137 125 118 101 84 96 104 94 88 124 121 122 118 111 118
133 146 143 139 129 142 143 162 179 158 128 162 131 135 124 101 134 189 155 135 106 74 160 171 118 240 182 159 142 139 132 129 154 151 138 243 254 262 248 222 184 143 164 139 131 155 56 336 290 256 348 229 194 102 60 76 76 83 84 62 91 126 105 69 44 4 348 118 132 126 134 139 136 132 124 109 95 89 72 51 106 123 141 128 118
125 126 125 125 106 130 119 144 150 118 107 78 72 51 39 61 38 19 341 160 141 176 175 168 152 182 165 145 160 148 132 117 129 137 160 193 216 220 225 255 76 117 101 93 82 197 96 281 260 254 228 274 64 91 92 72 74 81 79 87 95 107 140 133 160 169 201 67 110 134 152 150 154 150 143 128 113 100 79 72 56 64 70 73 125
125 123 115 118 111 130 122 99 77 102 64 72 75 107 135 140 138 145 203 246 145 165 155 113 133 142 143 150 163 162 155 136 143 142 156 189 235 197 175 123 150 115 104 121 187 243 55 143 287 267 281 45 67 61 75 72 76 82 80 98 96 113 139 147 143 220 141 141 93 129 141 152 158 156 138 111 117 122 132 135 142 128 87 60 12
119 120 134 121 93 106 124 115 101 83 103 133 160 140 153 138 133 159 175 224 183 137 146 132 152 140 131 144 166 156 150 142 138 132 149 175 192 156 119 123 238 171 142 130 146 62 33 35 353 316 324 25 68 63 82 89 96 96 93 89 104 80 3 110 118 125 85 100 153 139 166 174 176 155 107 95 104 152 161 167 158 144 128 119 68
110 129 133 131 124 130 134 117 115 126 136 120 130 144 136 120 143 171 165 193 177 128 116 140 150 151 144 155 171 164 173 158 144 131 122 162 135 80 112 160 211 106 96 141 129 75 41 37 82 347 327 314 120 98 89 97 92 98 107 100 77 81 14 34 72 98 118 93 98 125 171 210 162 98 89 102 240 180 195 154 134 96 108 136 199
143 141 144 137 129 122 95 98 109 125 137 146 144 116 116 163 129 104 131 85 58 91 103 73 55 14 97 147 155 155 161 150 138 125 124 118 88 89 75 123 251 158 124 149 85 119 105 69 36 35 27 311 103 92 73 91 93 79 72 82 100 113 133 127 158 143 172 160 134 142 117 39 26 95 98 173 200 266 105 23 40 19 10 2 340
156 148 147 134 107 85 81 87 108 122 110 106 98 96 95 78 57 81 81 116 145 106 88 70 60 41 322 73 147 140 154 140 136 123 100 121 104 126 111 96 252 183 177 129 140 131 122 144 156 176 168 243 359 68 108 85 64 72 75 112 105 62 350 233 86 94 76 104 125 123 142 146 64 76 114 209 180 119 140 58 354 13 353 341 319
62 114 125 97 93 92 88 94 100 112 102 123 128 107 115 139 133 116 120 115 151 95 135 134 143 169 182 230 113 125 137 112 111 130 140 131 189 120 96 152 242 205 163 158 149 81 6 151 129 126 137 352 34 1 38 65 77 92 77 50 82 126 272 71 40 82 144 201 146 169 167 39 64 64 177 198 140 114 70 307 353 341 204 157 5
58 42 118 92 75 69 78 100 117 122 124 120 113 96 71 19 55 56 41 355 116 148 154 182 158 150 223 84 121 136 139 129 140 137 129 94 123 105 142 153 212 191 187 160 151 129 181 164 145 136 94 50 60 305 112 103 101 101 89 75 41 54 154 236 146 190 195 146 146 91 72 56 74 152 202 179 94 46 51 54 28 27 5 61 54
89 84 72 68 75 80 56 97 124 128 107 79 60 57 62 34 16 3 312 227 236 206 172 164 115 69 82 32 124 123 125 132 129 135 123 174 153 119 181 174 212 215 171 186 157 164 206 155 155 78 112 124 174 208 139 113 113 79 66 77 48 5 78 23 36 155 212 126 91 95 130 150 166 156 171 187 124 114 109 77 77 81 75 70 67
98 83 88 112 125 129 152 136 27 65 58 57 71 67 48 56 279 260 264 200 209 151 81 66 57 79 85 353 86 111 111 121 134 136 134 128 113 195 162 102 253 267 168 204 152 143 162 174 170 133 91 160 132 47 56 89 38 156 150 107 107 75 42 35 317 148 170 148 125 123 136 118 103 106 122 111 65 112 96 75 159 203 92 110 116
107 101 121 133 131 136 106 102 83 73 82 79 54 61 31 29 351 322 276 113 36 43 100 98 110 91 93 115 110 105 240 128 140 116 115 120 171 233 111 143 197 177 180 191 163 137 167 171 154 105 63 353 48 26 44 27 134 92 42 124 163 146 20 6 309 37 341 10 160 153 163 139 121 127 121 119 113 105 96 100 256 12 66 62 107
122 121 123 127 132 143 139 130 123 120 102 90 112 120 101 52 325 268 27 52 74 51 58 83 93 121 100 72 79 110 146 88 61 62 94 93 150 221 139 133 220 235 178 177 176 157 143 168 156 139 151 149 197 122 272 185 133 142 133 245 99 109 132 187 144 305 140 212 205 65 42 100 118 109 94 88 113 116 83 143 98 78 66 45 66
133 125 130 135 146 141 129 123 119 110 98 114 124 114 82 16 246 23 49 65 44 54 96 73 54 86 122 126 101 91 75 112 132 97 79 62 224 213 180 123 122 267 299 323 211 167 158 187 167 146 154 164 146 137 262 162 182 246 165 135 107 77 228 141 141 276 253 101 85 102 39 59 51 96 114 123 131 119 132 127 75 86 92 85 82
126 127 131 137 137 130 126 128 126 129 136 145 142 109 156 194 142 96 121 142 134 152 91 141 184 204 94 125 116 113 93 100 137 140 153 181 159 144 146 153 149 177 193 191 242 273 205 185 184 115 156 137 122 130 230 295 201 258 310 1 315 167 154 178 125 147 349 5 68 69 103 98 130 91 78 69 47 96 127 116 72 113 137 149 144
123 123 135 143 142 138 135 136 138 136 139 143 164 178 179 167 164 174 183 170 131 83 77 50 65 89 57 81 78 101 125 108 95 110 111 138 153 159 181 188 169 158 162 165 229 195 197 194 122 133 143 145 154 130 181 222 167 179 263 280 339 27 102 125 177 160 112 56 56 62 44 53 42 53 83 82 91 58 109 131 148 166 167 153 110
135 141 141 147 145 137 124 125 137 138 125 119 196 169 144 169 179 165 145 104 98 99 70 47 43 65 73 80 123 207 107 106 112 108 154 132 161 178 188 183 181 179 162 181 196 198 183 191 145 147 183 148 152 136 152 161 212 166 177 234 56 20 74 60 105 154 124 114 70 51 55 38 43 55 67 97 112 90 94 124 122 109 73 62 53
147 141 134 136 130 129 127 134 142 134 134 151 173 135 145 170 133 98 96 107 108 114 125 120 62 57 67 349 45 75 56 56 75 82 52 107 76 32 347 348 326 189 178 155 173 161 161 128 119 141 152 89 96 132 131 135 222 160 162 151 197 112 83 81 97 121 153 132 113 98 92 70 69 47 112 108 93 91 96 106 111 94 83 74 68
128 124 130 142 148 146 140 140 151 147 144 156 162 154 157 137 124 123 129 137 142 130 108 92 105 33 61 46 42 74 103 103 72 31 30 65 74 117 28 12 27 26 34 62 71 63 77 52 132 130 96 109 107 107 98 106 121 126 19 149 110 111 98 91 169 75 322 283 130 129 136 135 113 177 155 145 143 134 93 82 84 95 95 90 81
143 146 146 151 153 152 146 147 148 142 156 160 166 153 151 143 134 140 141 140 130 118 107 125 135 119 111 124 85 110 103 98 88 54 48 69 28 82 162 100 27 10 43 99 112 116 81 99 96 86 86 96 99 101 112 114 118 126 169 130 163 164 155 174 182 198 200 139 110 137 149 115 125 134 206 172 137 123 108 88 90 99 99 99 97